Location: Unspecified
(51.5147°N, 7.4673°E)
Time: 06:08:22
(UTC+01:00)

A-11 Canister half - Pass Details

Date: 17 February 2026
Orbit: 1524 x 1683 km, 47.3° (Epoch: 14 March)

Event Time Altitude Azimuth Distance (km) Brightness Sun altitude
Rises 22:34:25 0° 284° (WNW) 4,678 12.2 -42.3°
Reaches altitude 10° 22:37:37 10° 278° (W) 3,694 11.4 -42.7°
Enters shadow 22:43:00 34° 252° (WSW) 2,336 10.0 -43.3°
